Regional Weather Roundup
Issued by NWS

Home | Current Version | Previous Version | Text Only | Print | Product List | Glossary On
Versions: 1 2 3 4 5 6 7 8 9 10 11 12 13 14 15 16 17 18 19 20 21 22 23 24 25 26 27 28 29 30 31 32 33 34 35 36 37 38 39 40 41 42 43 44 45 46 47 48 49 50
000
ASUS43 KLSX 171807
RWRMO

WEATHER SUMMARY FOR MISSOURI
NATIONAL WEATHER SERVICE SPRINGFIELD MO
1200 PM CST SAT FEB 17 2018

NOTE: "FAIR" INDICATES FEW OR NO CLOUDS BELOW 12,000 FEET WITH NO
       SIGNIFICANT WEATHER AND/OR OBSTRUCTIONS TO VISIBILITY.
       CURRENT SKY AND/OR WEATHER CONDITIONS ARE NOT AVAILABLE FOR
       CHILLICOTHE AND FARMINGTON.

MOZ001>031-035>038-043-044-053-054-171900-
...NORTHERN AND WESTERN MISSOURI...

CITY           SKY/WX    TMP DP  RH WIND       PRES   REMARKS
KANSAS CTY INT MOSUNNY   48  26  42 NW10G22   30.02R
6HR MIN TEMP:  32; 6HR MAX TEMP:  48; 6HR PCP:  0.02;

KANSAS C DTWN  SUNNY     46  31  55 W17G25    30.03R
6HR MIN TEMP:  35; 6HR MAX TEMP:  47; 6HR PCP: TRACE;

LEE`S SUMMIT   MOSUNNY   44  34  67 W15G23    30.03R
6HR MIN TEMP:  32; 6HR MAX TEMP:  44; 6HR PCP:  0.03;

ST JOSEPH      SUNNY     46  24  42 NW13G23   30.02R
6HR MIN TEMP:  32; 6HR MAX TEMP:  46;

CHILLICOTHE      N/A     44  32  62 VRB7G16   30.00F
6HR MIN TEMP:  30; 6HR MAX TEMP:  44; 6HR PCP:  0.02;

KIRKSVILLE     CLOUDY    35  35 100 SW10      29.97F WCI  27
6HR MIN TEMP:  28; 6HR MAX TEMP:  35; 6HR PCP:  0.06;


$$
MOZ066>068-077>081-088>096-101>105-171900-
...SOUTHWEST MISSOURI...

CITY           SKY/WX    TMP DP  RH WIND       PRES   REMARKS
SPRINGFIELD    CLOUDY    42  40  92 W13       30.05S
6HR MIN TEMP:  37; 6HR MAX TEMP:  42; 6HR PCP:  0.20;

JOPLIN         CLOUDY    42  39  89 W10       30.09S
6HR MIN TEMP:  37; 6HR MAX TEMP:  42; 6HR PCP:  0.05;

BRANSON        CLOUDY    41  41 100 NW3       30.08R FOG

$$
MOZ032>034-039>042-045>050-055>058-069>072-171900-
...CENTRAL MISSOURI...

CITY           SKY/WX    TMP DP  RH WIND       PRES   REMARKS
COLUMBIA       CLOUDY    35  35 100 S12       30.02S FOG     WCI  27
6HR MIN TEMP:  31; 6HR MAX TEMP:  35; 6HR PCP:  0.12;

JEFFERSON CITY CLOUDY    37  34  89 SW9       30.04F
6HR MIN TEMP:  32; 6HR MAX TEMP:  37; 6HR PCP:  0.13;

ROLLA          MIX PCPN  35  35 100 S13       30.03F FOG     WCI  26
6HR MIN TEMP:  31; 6HR MAX TEMP:  35; 6HR PCP:  0.07;

SEDALIA        CLOUDY    41  41 100 W12G22    30.04S
6HR MIN TEMP:  33; 6HR MAX TEMP:  41; 6HR PCP:  0.11;

WHITEMAN AFB   PTSUNNY   42  37  81 W14       29.97F
WARRENSBURG    PTSUNNY   43  34  70 SW15      30.03F
OSAGE BEACH    CLOUDY    38  38 100 SW6       30.05F FOG

$$
MOZ051-052-059>065-171900-
...EAST CENTRAL MISSOURI...

CITY           SKY/WX    TMP DP  RH WIND       PRES   REMARKS
ST LOUIS INTL  CLOUDY    36  35  96 S10       30.03F FOG     WCI  28
6HR MIN TEMP:  32; 6HR MAX TEMP:  36; 6HR PCP:  0.09;

SPIRIT OF STL  CLOUDY    36  35  96 S5        30.03F FOG
6HR MIN TEMP:  32; 6HR MAX TEMP:  36; 6HR PCP:  0.07;

ST CHARLES     CLOUDY    35  33  92 S8        30.03F FOG     WCI  29
6HR MIN TEMP:  30; 6HR MAX TEMP:  35; 6HR PCP:  0.13;


$$
MOZ072>076-082>087-097>100-106>115-171900-
...SOUTH CENTRAL AND SOUTHEAST MISSOURI...

CITY           SKY/WX    TMP DP  RH WIND       PRES   REMARKS
CAPE GIRARDEAU CLOUDY    37  35  92 NW3       30.08S FOG
6HR MIN TEMP:  33; 6HR MAX TEMP:  37; 6HR PCP:  0.42;

FARMINGTON     CLOUDY    36  34  92 S9        30.06F FOG     WCI  29
6HR MIN TEMP:  32; 6HR MAX TEMP:  36; 6HR PCP:  0.16;

POPLAR BLUFF   CLOUDY    39  38  96 NW3       30.09S FOG
6HR MIN TEMP:  35; 6HR MAX TEMP:  40; 6HR PCP:  0.50;

WEST PLAINS    CLOUDY    39  38  96 S6        30.06F
6HR MIN TEMP:  33; 6HR MAX TEMP:  39; 6HR PCP:  0.38;


$$



USA.gov is the U.S. government's official web portal to all federal, state and local government web resources and services.